Location: Newark
(56.0692°N, 115.8617°E)
Time: 01:08:47
(UTC+00:00)

S-56A Canister/Altair - All Passes

Search period start: 26 May 2020 00:00
Search period end: 05 June 2020 00:00
Orbit: 633 x 2499 km, 38.9° (Epoch: 24 May)

Date Brightness Start Highest point End Pass type
(mag) Time Alt. Az. Time Alt. Az. Time Alt. Az.
26 May - 00:14:09 10° SW 00:22:05 31° S 00:32:41 10° ESE daylight
26 May - 02:16:45 10° WSW 02:25:47 30° SSW 02:37:10 10° SE daylight
26 May - 04:21:34 10° WSW 04:29:27 19° SSW 04:38:21 10° S daylight
26 May - 21:42:04 10° S 21:46:42 16° SE 21:52:19 10° ESE daylight
26 May - 23:41:50 10° SW 23:49:11 29° SSE 23:59:03 10° ESE daylight
27 May - 01:44:08 10° WSW 01:52:43 30° S 02:03:47 10° SE daylight
27 May - 03:48:29 10° WSW 03:56:24 20° SSW 04:05:32 10° S daylight
27 May - 21:10:41 10° SSE 21:14:08 13° SE 21:18:06 10° ESE daylight
27 May - 23:09:36 10° SW 23:16:21 27° SSE 23:25:24 10° ESE daylight
28 May - 01:11:35 10° WSW 01:19:42 30° S 01:30:21 10° SE daylight
28 May - 03:15:32 10° WSW 03:23:21 21° SSW 03:32:36 10° SSE daylight
28 May - 20:40:13 10° SSE 20:41:35 10° SE 20:43:03 10° SE daylight
28 May - 22:37:27 10° SSW 22:43:36 24° SSE 22:51:44 10° ESE daylight
29 May - 00:39:08 10° WSW 00:46:44 29° S 00:56:52 10° SE daylight
29 May - 02:42:42 10° WSW 02:50:19 22° SSW 02:59:34 10° SSE daylight
29 May - 22:05:23 10° SSW 22:10:54 22° SSE 22:18:04 10° ESE daylight
30 May - 00:06:44 10° SW 00:13:50 28° S 00:23:22 10° SE daylight
30 May - 02:09:59 10° WSW 02:17:20 22° SSW 02:26:27 10° SSE daylight
30 May - 21:33:25 10° SSW 21:38:16 19° SSE 21:44:23 10° ESE daylight
30 May - 23:34:24 10° SW 23:40:59 27° S 23:49:52 10° SE daylight
31 May - 01:37:20 10° WSW 01:44:23 23° SSW 01:53:15 10° SSE daylight
31 May - 03:45:02 10° SW 03:47:36 11° SW 03:50:20 10° SSW daylight
31 May - 21:01:36 10° S 21:05:41 17° SSE 21:10:41 10° ESE daylight
31 May - 23:02:07 10° SW 23:08:12 26° S 23:16:22 10° SE daylight
01 Jun - 01:04:47 10° WSW 01:11:28 23° SSW 01:20:00 10° SSE daylight
01 Jun - 03:11:16 10° SW 03:14:42 12° SW 03:18:25 10° SSW daylight
01 Jun - 20:29:58 10° S 20:33:09 14° SSE 20:36:52 10° ESE daylight
01 Jun - 22:29:55 10° SW 22:35:29 24° S 22:42:52 10° SE daylight
02 Jun - 00:32:18 10° WSW 00:38:36 22° SSW 00:46:43 10° SSE daylight
02 Jun - 02:37:59 10° SW 02:41:49 12° SSW 02:46:05 10° SSW daylight
02 Jun - 19:58:48 10° SSE 20:00:39 11° SSE 20:02:41 10° SE daylight
02 Jun - 21:57:46 10° SW 22:02:48 22° S 22:09:24 10° SE daylight
02 Jun - 23:59:53 10° WSW 00:05:47 22° S 00:13:25 10° SSE daylight
03 Jun - 02:04:57 10° SW 02:08:58 13° SSW 02:13:30 10° S daylight
03 Jun - 21:25:42 10° SSW 21:30:12 20° SSE 21:35:56 10° SE daylight
03 Jun - 23:27:32 10° SW 23:33:01 21° S 23:40:06 10° SE daylight
04 Jun - 01:32:05 10° SW 01:36:08 13° SSW 01:40:46 10° S daylight
04 Jun - 20:53:41 10° SSW 20:57:38 18° SSE 21:02:30 10° SE daylight
04 Jun - 22:55:14 10° SW 23:00:18 21° S 23:06:48 10° SE daylight
